RH
12 14 20 27 36 43 47 50 54 59 62 64 66 71 77 79 80 81 81 80 80 79 79 77 77 77 77 78 79 80 82 84 86 88 88 88 88 88 87 85 83 81 79 76 73 72 71 70 67 64 60 55 51 47 44 41 37 31 24 20 16 13 13 12 12 12 13 14 15 17 18 18 17 16 16 16 15 15 15 15 15 15 16 16 17 17 17 17
16 17 23 31 38 43 47 51 55 58 59 62 63 66 72 77 79 79 79 78 78 77 76 75 75 77 78 81 83 85 86 86 87 87 88 89 90 90 89 88 85 82 79 77 76 75 72 68 64 59 54 50 46 42 37 31 25 20 15 14 13 13 13 14 15 15 16 17 17 18 17 16 15 15 15 15 15 15 16 16 17 17 17 17 17 17 17 17
18 22 25 32 40 44 48 51 54 56 57 59 61 63 66 72 76 76 77 76 75 74 74 74 74 75 78 80 83 84 84 85 86 89 92 94 94 93 92 90 86 82 80 80 77 74 69 63 58 53 50 45 39 32 25 20 16 14 13 14 14 14 15 17 18 18 18 18 17 17 16 16 16 16 16 15 16 16 17 17 17 18 17 17 17 17 17 18
21 24 28 30 35 39 45 50 52 53 54 57 58 60 63 67 71 73 75 74 74 74 73 73 73 75 77 78 80 82 84 87 92 96 100 100 98 97 94 89 86 84 83 80 74 68 63 57 53 49 44 36 27 21 16 15 14 14 14 14 15 16 17 18 18 18 18 17 17 16 16 17 17 16 16 16 17 17 18 18 18 18 18 17 17 17 18 19
29 25 27 28 30 34 40 44 46 49 53 56 58 58 60 62 65 69 72 73 73 73 73 73 74 76 78 81 83 86 89 93 98 102 104 103 100 95 91 89 87 85 80 73 67 62 57 52 47 40 32 24 18 15 14 14 14 14 15 15 16 17 18 18 19 18 18 17 17 17 18 18 17 17 17 17 17 18 18 19 19 19 18 17 18 18 18 18
39 35 32 30 32 34 38 40 44 49 53 55 55 56 57 59 61 64 68 71 73 74 76 78 80 83 86 89 90 92 95 98 100 101 102 100 96 92 90 89 84 79 71 65 61 56 52 46 37 27 20 16 14 14 14 15 15 16 16 16 17 17 19 19 19 19 18 18 18 18 18 18 18 18 18 17 17 18 19 20 20 19 19 19 19 19 18 18
41 42 40 38 40 42 43 47 51 53 53 54 54 54 55 57 60 64 69 73 76 80 84 88 91 94 96 97 96 97 98 98 98 97 97 95 93 92 89 84 77 70 64 60 56 51 44 35 25 18 15 14 14 15 15 16 16 16 17 17 18 19 20 20 20 19 19 19 19 18 18 18 18 18 18 18 17 18 19 19 19 19 19 20 20 19 19 18
48 45 43 46 48 48 50 52 54 53 53 54 53 54 57 62 66 71 76 80 85 90 94 97 99 99 99 98 97 97 97 97 97 97 96 95 93 89 82 75 68 63 60 56 50 41 32 22 17 15 15 15 15 16 15 16 17 18 20 20 20 21 20 20 19 20 20 20 19 19 19 18 18 18 18 18 18 18 18 18 18 18 20 22 22 21 20 19
58 50 50 54 51 48 50 50 51 54 55 56 59 64 73 78 80 83 87 91 96 99 99 98 96 96 97 97 97 98 99 99 99 98 96 92 87 80 73 67 64 61 56 50 40 29 21 17 16 15 15 16 15 16 16 17 18 20 20 21 21 20 19 19 20 21 21 21 21 20 20 19 20 19 19 18 18 18 18 17 17 18 20 24 24 22 20 19
62 51 52 55 55 53 54 53 56 61 63 69 78 84 90 92 93 96 99 100 101 99 97 96 95 96 97 99 101 102 101 99 98 95 90 85 79 73 69 65 62 58 49 38 28 20 17 16 16 16 16 16 16 16 16 17 19 20 21 23 22 20 20 21 22 22 22 23 22 21 21 21 21 21 20 19 19 18 17 17 16 17 20 24 26 23 21 19
66 54 54 54 58 64 69 71 72 76 81 90 96 97 98 100 101 102 101 101 100 99 98 98 98 99 101 102 103 102 98 95 92 87 83 79 74 70 68 64 58 48 36 26 19 17 16 16 16 16 16 16 17 17 18 19 20 21 24 25 23 23 24 24 24 24 24 25 24 25 24 24 23 22 21 20 19 18 17 17 17 17 19 23 26 25 22 20
77 63 56 54 62 76 90 95 92 94 99 101 102 100 101 102 101 100 100 100 100 100 100 101 102 102 102 102 100 97 93 89 85 83 80 76 72 69 65 59 49 35 24 19 17 17 17 17 17 17 17 18 18 19 21 21 21 25 27 25 24 25 26 25 25 25 26 26 27 28 27 26 25 23 22 21 19 18 17 17 18 18 18 21 26 26 24 23
82 73 63 63 70 83 101 109 105 106 107 103 100 100 100 100 100 101 101 100 100 100 100 102 103 103 101 99 95 91 88 85 83 80 76 72 69 66 60 50 35 23 19 18 17 18 17 17 17 17 18 19 20 22 22 23 26 29 28 25 24 24 26 27 28 27 27 27 28 28 28 27 25 24 22 21 20 19 18 19 19 19 18 19 24 27 27 25
72 71 69 69 69 78 94 106 107 107 105 101 100 100 100 100 99 100 100 99 99 99 99 100 99 98 94 91 89 88 86 83 80 76 72 70 67 60 50 34 22 18 18 19 18 18 18 18 18 19 19 21 22 22 23 27 31 29 25 24 24 25 27 29 28 27 27 28 28 27 27 26 25 23 22 21 20 19 20 21 22 21 20 19 21 26 29 28
56 59 63 62 59 67 82 98 108 107 102 99 100 100 100 99 97 98 99 97 95 94 93 93 92 90 83 82 87 87 84 80 75 72 70 68 61 47 33 22 18 19 19 19 19 19 19 19 20 20 21 22 22 23 27 30 29 25 23 24 26 28 29 29 29 29 29 29 27 26 26 26 24 23 22 21 21 20 21 21 23 23 21 19 19 24 30 29
45 46 56 59 60 70 81 98 109 104 101 100 100 100 100 100 99 99 98 94 89 86 85 85 83 79 77 82 90 88 81 77 72 71 72 65 48 31 21 19 20 20 20 20 20 19 20 19 19 20 22 24 25 29 30 28 25 24 26 27 29 30 29 28 29 30 29 28 27 25 25 26 25 24 23 22 22 21 22 22 22 23 22 20 19 22 28 29
39 41 49 54 64 76 83 99 109 104 100 101 100 100 100 100 99 97 96 95 90 83 79 76 72 74 82 90 90 84 77 74 72 75 72 53 32 21 19 20 20 21 21 20 20 20 20 20 22 23 25 26 27 28 26 26 28 30 30 31 31 30 29 29 30 31 29 29 30 27 25 27 26 25 24 24 23 23 23 23 22 22 23 21 19 20 26 28
37 42 47 51 64 75 81 93 102 104 103 101 101 100 99 101 99 94 95 100 96 83 72 68 69 74 85 87 82 79 76 76 78 77 61 35 22 20 21 21 21 22 21 20 21 21 22 24 25 25 25 25 25 25 26 30 33 32 32 33 33 30 29 29 30 32 31 30 31 28 25 26 26 25 25 25 26 26 25 23 22 22 22 22 21 20 23 27
36 44 46 53 65 74 87 98 101 102 100 102 104 99 100 102 96 93 99 102 93 77 70 72 75 77 81 81 81 82 80 80 80 68 42 24 20 21 22 22 23 22 21 21 22 22 24 25 25 25 26 27 26 27 30 33 32 32 33 34 34 31 29 29 29 30 30 29 30 31 27 26 26 24 25 27 28 28 27 24 23 22 22 22 22 20 22 27
37 46 45 51 63 67 82 97 97 92 90 99 104 99 101 102 96 98 100 95 86 81 80 79 78 81 85 85 86 84 82 83 75 52 29 21 22 22 23 23 23 22 22 22 23 25 26 26 27 28 28 29 29 30 31 32 33 34 35 35 35 32 29 29 28 28 30 29 30 31 28 26 26 25 26 29 30 29 28 26 24 22 22 23 23 22 22 27
36 44 45 47 56 64 75 83 82 81 84 95 104 101 100 102 99 95 92 89 91 94 90 83 85 93 94 90 88 86 86 81 61 36 23 21 23 23 24 24 23 23 23 25 26 27 27 27 28 29 30 32 32 33 34 35 36 36 37 37 34 31 29 29 28 29 29 29 29 30 29 26 26 26 27 30 32 31 29 27 25 23 22 23 24 23 22 25
37 38 43 47 52 63 74 74 72 76 79 86 99 102 99 102 99 89 87 93 99 100 91 85 94 104 99 93 91 87 84 70 43 26 22 23 25 25 25 24 24 25 26 28 29 29 29 29 30 31 35 36 36 37 37 36 37 38 38 35 31 30 31 32 31 30 28 29 29 30 30 26 25 28 29 32 33 31 30 28 26 24 23 23 25 24 22 24
41 38 46 58 60 66 78 83 85 89 90 91 99 102 99 102 100 91 93 99 101 98 90 89 100 106 101 97 94 88 77 55 30 23 24 25 27 26 26 25 26 28 30 30 30 30 30 30 31 34 38 39 40 40 38 36 38 39 37 33 32 32 32 33 34 33 30 29 28 29 31 27 26 29 31 32 33 31 30 28 27 26 24 24 25 25 23 24
44 43 51 66 73 77 82 89 96 100 102 102 102 101 101 102 99 96 99 102 100 95 91 95 102 102 101 100 95 83 65 41 25 24 26 27 28 27 27 26 27 29 30 30 29 29 30 31 34 38 41 41 41 41 40 41 40 37 34 34 36 35 35 35 35 35 32 30 27 28 32 31 27 30 32 32 32 30 28 27 27 27 27 26 25 25 24 25
43 48 50 61 77 80 73 77 91 98 101 103 102 101 104 101 98 100 102 99 96 93 94 101 102 101 101 99 90 75 54 33 25 26 27 29 29 28 28 28 29 31 30 30 30 30 33 36 40 42 42 41 41 41 42 42 38 36 37 38 38 37 38 37 36 36 33 30 28 26 31 32 29 30 32 31 30 28 28 27 27 29 30 28 25 25 25 26
41 48 46 56 67 64 63 78 97 101 99 101 99 98 103 102 100 100 97 94 95 97 100 104 103 101 100 96 84 66 44 29 25 27 29 29 29 29 29 30 32 32 32 32 32 33 36 40 42 42 41 40 39 38 38 37 38 39 41 40 40 40 41 40 39 38 34 30 29 27 29 32 30 30 30 28 28 28 28 28 28 29 31 30 26 26 27 27
41 45 50 72 80 72 81 95 100 99 99 102 98 97 103 102 99 97 92 94 99 101 102 103 102 101 99 92 76 54 36 27 27 28 29 30 30 29 30 31 32 33 33 33 33 35 37 40 42 41 39 37 36 36 36 38 41 43 43 43 45 45 44 43 42 39 34 31 31 29 30 33 32 30 29 27 27 28 28 29 28 30 32 32 28 27 28 27
42 44 56 88 100 94 98 100 99 101 100 100 98 98 101 101 101 97 90 95 100 100 101 101 101 100 97 85 63 43 32 27 28 30 31 31 31 31 32 33 34 34 34 33 33 35 37 39 39 38 36 34 34 35 37 40 43 45 46 47 47 47 46 46 44 39 34 33 33 32 32 34 32 29 28 27 28 29 29 30 29 30 33 33 30 28 28 27
47 52 65 92 102 99 101 99 100 102 98 100 101 100 100 102 103 97 92 97 100 99 101 101 101 100 93 74 51 36 30 29 31 32 32 32 32 33 33 35 36 37 37 35 33 33 34 35 35 35 35 35 35 36 38 41 43 45 47 49 49 48 49 46 41 38 36 36 36 34 33 32 30 29 28 28 29 30 30 30 30 31 33 33 30 28 28 28
52 62 74 93 99 96 100 102 100 100 100 103 105 101 97 98 99 96 96 99 99 100 102 103 102 97 85 64 41 32 30 32 33 33 34 33 33 35 35 38 40 41 39 35 32 31 32 34 36 37 38 38 38 40 42 43 43 45 46 49 50 49 47 43 39 39 40 39 36 33 32 30 28 27 28 29 30 30 30 30 30 30 33 33 30 28 27 29
58 72 81 91 94 89 90 94 94 94 94 97 99 96 94 96 97 98 99 100 100 101 102 103 101 94 80 56 37 32 32 34 35 35 36 35 36 38 39 41 42 41 39 35 33 33 35 38 41 41 42 43 45 46 46 45 44 45 46 47 48 47 44 40 38 40 41 38 33 30 29 31 30 28 29 30 29 29 29 29 30 30 32 32 29 28 27 31
76 86 83 87 94 91 91 94 89 82 82 90 96 97 99 101 99 98 99 100 101 101 101 101 99 92 73 47 34 34 35 36 37 37 37 37 38 39 39 41 42 41 40 38 39 40 41 43 43 45 48 50 50 49 47 46 45 45 45 46 45 43 40 36 36 38 39 38 34 29 29 32 31 29 30 32 32 33 32 30 29 28 31 31 29 28 27 34
86 83 75 85 99 100 97 94 84 78 84 95 101 103 103 101 98 99 100 100 100 101 101 101 97 85 59 38 34 37 37 38 38 37 37 37 37 38 41 43 44 44 43 42 43 44 44 45 47 50 52 52 50 48 47 45 44 44 44 43 41 37 35 34 35 35 36 38 36 32 29 31 36 39 44 50 53 53 47 37 29 27 30 29 28 28 28 39
76 74 71 84 99 99 88 75 71 79 92 101 106 106 101 98 99 100 100 101 102 103 103 100 93 72 45 33 36 37 37 38 37 36 36 36 38 41 44 48 49 49 47 45 45 45 46 48 50 51 51 51 50 47 45 44 44 44 43 40 38 37 36 36 35 33 33 37 37 35 35 45 58 62 63 67 68 66 60 44 29 26 28 28 28 28 30 45
74 82 81 81 85 82 69 59 65 82 96 103 106 103 98 99 100 100 100 102 104 104 102 97 84 57 35 33 36 36 37 37 35 36 37 39 41 44 48 52 53 52 50 48 48 50 51 52 53 53 52 51 48 46 45 45 45 43 41 39 39 39 39 37 35 33 33 34 39 48 56 63 67 61 56 58 58 60 57 41 28 26 26 27 27 27 35 52
90 97 96 86 73 64 58 62 74 86 96 104 103 99 99 100 100 100 103 105 105 103 99 91 71 44 32 35 36 37 37 36 36 38 40 42 44 47 51 53 53 52 51 51 52 54 56 56 55 53 50 48 46 46 46 45 44 41 40 40 40 39 38 36 35 34 34 40 54 71 71 58 50 43 40 44 46 48 45 34 27 25 24 27 27 29 43 57
99 102 99 85 70 65 65 71 80 88 98 102 101 99 100 100 100 103 106 105 103 101 95 80 55 36 33 35 36 37 36 36 39 41 43 45 46 49 51 52 53 52 52 53 55 56 56 54 51 49 48 47 46 46 46 44 42 41 42 41 39 37 37 36 36 37 44 52 64 82 75 46 34 35 35 39 40 38 37 31 25 24 24 27 28 36 52 59
76 78 74 68 73 79 77 77 85 94 100 100 99 99 99 100 103 105 105 102 101 100 88 64 41 33 35 36 37 36 35 38 41 43 46 48 50 52 53 54 54 53 54 54 52 51 48 47 47 46 46 46 46 45 45 43 42 43 43 40 37 37 37 37 41 49 58 59 60 78 80 49 32 38 39 39 37 33 34 30 23 24 26 26 34 49 59 58
52 52 54 62 80 90 90 93 96 97 98 98 99 100 102 104 105 103 102 101 102 94 72 47 35 35 36 35 36 35 37 40 43 44 47 49 53 55 56 56 55 54 52 48 44 43 43 44 46 45 44 45 44 43 44 43 44 43 41 40 39 38 40 44 55 64 67 65 60 72 83 62 42 41 37 35 35 30 29 27 24 26 26 31 47 59 60 57
46 52 65 80 95 101 102 102 98 97 99 100 101 103 104 104 102 101 101 101 96 78 52 36 34 35 35 36 36 36 39 41 42 44 48 51 55 56 57 56 53 50 44 40 41 42 43 44 45 45 44 43 42 42 44 43 42 41 41 42 40 41 50 59 69 74 74 75 70 71 85 79 61 56 47 40 37 27 25 30 28 27 31 45 59 60 59 62
55 73 87 99 106 104 101 99 98 100 101 100 101 102 101 101 101 102 100 92 77 56 39 34 35 35 36 36 37 38 40 41 42 44 47 51 52 52 52 49 46 43 39 40 42 42 43 43 44 46 44 42 43 41 42 42 42 42 42 42 44 52 65 69 71 75 80 85 78 75 92 91 76 73 64 48 40 30 29 33 30 34 47 57 61 59 64 69
76 92 100 105 105 99 97 100 100 100 100 100 101 100 102 104 104 101 91 74 56 40 34 35 35 36 37 38 39 40 41 41 42 44 45 46 45 44 44 43 41 40 39 42 43 42 44 43 43 45 44 42 42 40 41 42 42 42 42 46 56 68 75 70 67 72 81 92 85 77 94 97 78 73 64 52 49 38 29 33 39 50 59 59 60 65 70 72
90 97 100 102 100 98 99 100 100 100 101 100 101 103 105 105 102 95 79 59 44 36 35 36 36 38 38 40 41 41 41 42 42 43 42 41 41 41 41 40 40 41 42 44 44 43 43 42 41 42 41 41 41 40 41 41 42 45 49 61 73 80 79 70 66 70 81 99 93 74 84 90 69 63 62 55 49 36 29 43 55 59 60 61 67 72 72 69
91 95 99 100 99 100 100 99 101 103 101 102 104 105 105 102 99 89 70 50 40 36 36 37 38 40 40 41 42 42 42 42 42 43 42 41 41 40 40 41 42 44 45 44 44 43 42 41 38 38 38 38 39 40 41 43 49 56 64 76 82 82 79 70 66 70 82 101 97 68 61 68 62 61 60 45 37 37 44 56 60 59 63 70 75 74 69 64
91 97 98 99 100 100 100 100 102 102 102 104 105 103 103 102 97 84 64 46 37 35 37 39 40 41 42 43 43 42 43 42 42 43 42 41 42 42 44 46 46 46 45 43 43 41 41 40 39 39 39 37 38 43 47 54 63 70 76 82 81 78 76 68 68 75 81 94 95 65 43 49 58 59 50 40 43 52 56 59 64 69 74 77 75 70 65 61
96 99 99 100 100 100 101 101 101 103 104 104 103 102 102 101 93 79 59 44 38 37 38 40 40 41 42 42 42 42 43 43 43 43 43 44 46 47 48 48 46 45 44 42 40 38 40 41 40 41 42 40 43 51 60 72 79 80 82 82 77 71 70 73 78 76 70 73 77 63 42 36 42 46 46 50 58 62 61 66 76 82 80 77 73 67 64 67
99 101 101 101 102 102 102 101 101 104 105 104 103 102 100 97 87 68 50 41 38 38 39 40 39 40 41 41 42 43 43 44 45 45 47 48 49 48 47 45 44 43 41 39 38 37 38 40 41 43 44 46 54 65 79 88 88 84 80 75 71 68 74 89 87 64 51 54 54 49 41 34 38 49 56 61 66 70 71 73 80 83 78 73 70 69 73 78
99 100 101 101 103 103 102 101 102 105 108 106 103 101 98 90 72 52 42 39 38 37 38 39 38 39 41 41 42 43 43 45 47 47 48 48 47 46 44 43 41 40 38 37 37 37 38 41 42 44 49 57 70 82 91 93 87 79 69 64 68 76 90 102 83 44 35 45 41 38 43 46 51 59 64 70 76 82 79 73 76 79 74 70 72 77 82 81
98 99 101 101 103 104 101 101 105 109 109 104 102 102 95 76 56 45 41 38 38 38 39 39 40 40 41 41 41 42 43 45 46 46 46 45 44 42 41 40 38 37 37 37 37 38 40 44 49 54 65 77 86 92 94 89 77 67 63 68 78 86 96 95 65 31 29 40 41 44 53 59 62 62 66 74 81 86 80 70 71 73 70 72 77 80 79 75
101 103 103 101 101 101 100 104 111 110 104 101 103 98 80 58 45 41 39 37 39 40 39 40 40 40 40 40 40 41 42 43 43 43 42 41 40 39 37 37 36 36 38 38 40 43 46 53 60 66 80 92 93 91 88 76 63 62 72 77 74 71 74 70 45 26 32 45 52 57 58 60 64 63 65 71 76 81 80 67 64 70 71 73 74 73 71 68
104 104 102 101 101 101 101 106 109 105 100 99 93 75 56 45 41 39 38 38 39 39 39 40 39 39 39 39 39 40 40 40 40 39 38 37 37 36 36 37 37 38 40 41 46 51 56 63 66 67 78 88 82 73 70 66 64 73 77 66 52 47 47 47 37 33 44 55 60 62 56 54 61 63 63 68 71 77 79 68 61 67 69 67 67 66 65 65
103 102 102 101 101 103 105 107 105 99 92 83 67 51 44 42 39 37 37 37 37 37 38 38 37 38 38 37 38 38 37 38 37 36 35 35 35 36 37 38 39 41 46 49 54 58 61 63 63 60 63 68 63 59 67 70 66 65 56 40 35 36 35 46 52 48 53 61 59 60 60 57 64 68 65 66 67 74 84 76 60 60 63 61 63 64 63 66
Wind_Speed
34 37 39 40 41 44 45 44 43 41 40 40 40 39 39 40 40 40 40 40 40 41 41 40 40 40 40 40 40 39 39 38 38 38 38 39 40 40 41 41 42 43 44 45 47 48 48 49 50 52 53 55 57 59 59 59 58 57 55 53 52 52 51 51 52 52 51 51 51 51 52 53 54 55 56 57 58 59 60 62 63 64 65 66 67 68 68 69
33 35 37 39 40 42 44 43 41 41 41 40 39 37 37 37 37 38 38 38 39 40 40 40 40 40 40 40 40 39 39 38 38 38 38 39 39 40 40 40 41 42 44 45 46 46 47 48 50 52 53 55 56 56 55 54 53 51 49 48 48 48 48 49 50 50 50 50 50 51 53 53 53 54 55 55 57 58 60 61 62 63 64 65 66 67 67 68
31 34 35 38 40 42 42 42 41 40 40 39 37 35 35 35 35 36 36 36 37 38 39 39 39 39 39 39 39 39 38 37 37 37 37 38 38 39 39 40 41 42 43 43 44 45 47 49 50 51 52 52 52 51 50 49 47 46 45 45 45 46 46 47 48 48 49 50 50 52 53 53 53 53 54 55 57 59 60 61 61 63 64 65 66 66 66 67
27 31 33 35 38 40 42 41 41 40 39 36 34 33 33 33 33 33 34 34 35 36 36 37 37 37 37 37 37 37 36 35 35 35 36 37 37 38 39 39 40 40 41 42 44 46 47 48 49 49 49 48 47 46 44 44 43 43 43 43 44 44 45 46 47 49 49 50 51 51 52 52 52 53 54 56 57 59 60 61 62 63 64 65 64 65 66 67
25 28 30 31 33 36 38 39 39 37 35 33 32 32 31 31 31 31 31 32 33 33 34 34 34 35 35 35 34 34 34 33 34 35 35 36 36 37 37 38 38 39 40 42 44 45 46 47 48 47 47 45 43 42 41 41 41 41 42 42 42 43 44 46 48 49 50 51 50 50 50 51 53 54 54 56 57 58 60 61 62 63 64 63 64 64 66 68
28 28 27 27 29 31 34 35 34 32 31 31 31 30 30 29 29 29 30 30 31 30 31 31 31 31 31 31 31 31 31 31 32 33 34 34 35 35 35 36 38 39 41 42 44 45 46 46 45 43 42 41 40 39 39 39 39 40 41 42 43 43 45 46 48 49 50 49 48 49 50 52 53 53 54 55 56 57 58 60 61 62 62 62 63 64 66 68
29 29 28 26 27 28 30 30 30 30 30 30 29 28 28 27 27 28 28 28 28 28 28 28 28 28 28 28 29 29 30 30 31 32 32 32 33 34 35 36 38 40 41 43 44 45 44 42 41 39 38 37 37 37 36 37 38 39 41 42 43 44 45 46 47 48 48 48 48 49 50 51 52 53 54 54 55 55 57 59 60 61 61 62 64 65 66 68
29 28 27 26 27 27 28 29 29 28 28 27 27 26 25 25 26 26 26 26 26 26 26 26 26 26 26 26 27 28 28 29 29 30 30 31 32 33 35 37 39 40 42 43 42 41 40 38 37 36 35 34 34 35 35 36 38 39 40 42 43 44 44 45 45 45 46 47 48 49 49 50 52 53 53 54 54 55 56 58 60 60 61 62 64 66 67 68
27 27 26 26 26 27 28 28 28 28 27 26 25 24 23 24 24 25 25 25 25 25 25 25 25 25 25 25 26 26 27 27 28 28 29 31 32 34 36 38 39 40 40 40 39 37 36 34 33 33 32 33 33 34 35 36 36 37 39 41 43 44 45 44 44 44 46 47 47 48 49 51 52 53 54 54 55 56 57 58 59 60 61 63 65 67 68 69
25 25 25 26 26 26 27 27 27 26 25 24 23 23 23 23 24 24 25 24 24 24 24 24 24 24 24 24 25 25 25 26 27 28 29 31 33 35 37 38 39 39 38 37 36 34 32 31 31 31 32 33 33 34 35 35 36 38 39 41 43 45 44 44 43 44 46 47 48 49 50 51 53 54 55 55 56 57 58 59 60 61 62 64 66 68 68 69
22 22 23 24 25 26 26 25 25 25 24 23 22 22 23 22 23 23 24 24 24 23 23 23 22 22 22 23 23 23 24 25 27 28 30 32 34 36 36 37 37 37 35 34 32 30 29 29 30 31 32 33 34 35 36 36 38 39 39 41 43 44 44 44 44 45 46 47 48 49 51 52 54 55 56 57 57 58 59 60 61 63 63 64 66 68 69 70
22 21 22 22 23 25 25 24 24 24 24 23 21 21 21 21 22 23 23 23 23 22 22 21 21 21 21 22 22 23 24 26 27 29 31 33 34 35 35 35 35 34 32 31 29 29 29 29 30 31 32 33 34 35 37 39 40 40 40 41 41 42 44 45 45 46 46 47 48 50 52 53 54 56 57 58 59 60 61 62 63 64 65 65 66 68 69 71
24 23 22 22 23 25 26 26 25 25 24 23 22 20 18 20 21 22 22 22 22 21 21 21 20 21 21 21 23 24 26 27 28 30 31 32 33 33 33 33 33 31 30 28 28 28 28 29 30 31 33 34 35 37 39 40 40 40 41 41 41 42 43 45 46 46 47 48 49 50 53 54 55 57 58 58 59 61 62 63 65 66 66 66 67 68 70 72
26 25 25 25 26 26 27 27 26 26 24 22 22 20 19 20 21 21 21 21 21 21 21 21 20 21 21 22 24 25 26 27 29 30 31 31 31 32 32 31 30 28 27 26 27 27 29 30 31 33 34 35 36 38 40 39 39 40 41 42 43 43 43 45 46 47 48 49 50 50 54 56 57 58 59 60 61 62 63 64 66 67 68 68 68 69 71 73
28 28 27 27 27 27 27 27 27 26 24 21 21 20 20 20 21 21 20 20 20 20 20 20 20 21 22 23 24 25 26 27 28 29 29 29 30 30 30 29 27 26 25 25 26 28 29 31 32 34 35 37 38 39 39 39 40 42 42 42 43 43 44 45 47 48 49 51 51 51 54 58 60 61 62 62 63 64 64 65 66 68 70 70 70 71 72 74
30 29 29 28 26 26 27 26 26 25 24 21 19 19 18 19 20 20 19 19 19 19 19 19 20 21 22 22 24 25 26 27 27 27 27 28 29 28 28 26 25 24 24 26 27 29 31 33 34 36 36 37 38 38 39 41 42 42 41 41 42 44 46 47 48 49 51 54 55 54 56 60 62 63 64 65 66 67 68 68 68 69 71 72 72 72 73 75
32 30 30 29 28 28 28 27 24 23 23 22 20 18 17 18 20 20 18 18 18 18 18 19 20 21 21 23 24 25 25 25 25 26 26 27 27 27 26 25 24 24 26 27 29 31 33 34 35 36 37 38 38 39 41 42 43 42 42 43 43 44 46 47 50 52 54 57 60 59 59 62 65 65 66 67 69 70 71 71 70 70 71 73 74 74 75 76
33 32 30 29 28 29 27 25 22 22 23 22 20 19 18 19 20 19 17 16 17 18 19 19 19 20 21 23 23 24 24 24 24 25 26 26 26 25 24 23 24 25 27 29 31 32 34 34 35 37 39 40 41 42 42 42 42 43 43 44 45 45 46 47 50 54 57 59 62 64 63 65 67 67 68 69 70 71 73 73 72 72 72 74 75 76 76 77
33 34 32 29 29 29 27 25 25 26 26 23 22 20 19 20 21 18 17 17 18 20 20 19 19 19 21 22 23 23 23 24 25 25 25 25 24 23 22 23 24 26 28 30 32 33 34 35 37 39 40 42 43 43 43 43 43 44 43 43 45 46 46 47 49 53 58 60 64 67 65 66 68 68 68 70 71 72 73 74 74 73 73 74 76 77 78 78
32 35 34 31 30 30 30 30 31 31 27 23 23 21 19 21 22 20 20 20 20 20 19 18 19 19 20 23 24 23 23 24 25 25 24 23 22 22 22 23 25 27 29 31 32 33 35 37 38 39 41 42 42 43 43 44 44 43 43 44 46 48 48 49 50 54 59 62 65 68 67 66 68 69 69 70 71 72 74 74 75 75 74 75 77 78 79 79
30 35 35 33 31 30 31 32 31 28 24 22 23 21 20 21 23 23 21 20 20 20 19 19 20 21 23 25 25 24 24 25 25 24 23 21 21 21 22 24 26 28 29 30 32 34 36 37 38 39 41 41 42 43 43 44 44 43 44 46 47 49 51 53 54 56 59 62 66 69 70 67 68 69 69 70 71 72 74 75 76 76 76 76 77 79 79 80
27 33 34 33 32 30 30 29 26 23 21 21 23 22 21 21 23 22 20 19 21 21 20 21 22 23 26 27 25 24 25 25 25 23 21 20 21 22 23 26 27 28 29 31 33 35 37 38 39 40 41 42 43 44 43 43 43 44 46 47 49 50 54 58 60 59 59 62 65 69 71 68 67 69 69 70 71 72 73 75 76 77 77 77 77 79 80 80
25 30 33 33 32 31 29 26 22 20 19 21 24 22 21 21 22 20 18 20 23 23 23 23 23 25 28 27 26 25 25 25 24 22 20 20 22 23 25 27 28 28 30 32 34 35 37 38 40 41 42 44 45 45 44 43 43 46 47 50 52 53 55 59 63 64 63 63 65 67 71 70 68 69 70 70 71 72 73 74 76 77 78 78 78 79 80 81
25 29 34 35 34 33 31 27 23 20 19 20 22 21 21 21 18 18 20 23 24 23 24 24 25 27 28 27 26 26 25 25 23 21 21 22 23 25 27 28 28 30 32 33 34 35 37 39 41 42 44 45 45 45 45 46 46 48 50 52 55 57 58 59 63 66 67 67 66 65 69 71 69 69 70 71 72 72 73 74 75 76 78 79 79 79 81 81
26 29 34 37 37 34 31 27 23 21 21 21 22 22 23 21 18 19 23 24 23 23 24 24 26 28 27 26 26 26 26 25 22 21 22 23 25 27 28 29 30 31 33 34 35 37 39 40 42 43 43 43 43 44 46 48 50 51 53 55 57 59 61 63 64 67 69 69 68 65 66 69 70 70 71 71 72 72 73 74 74 75 78 79 79 79 81 81
28 29 32 35 35 32 28 24 23 25 27 28 27 26 25 23 22 23 24 23 23 23 24 25 27 28 27 26 27 26 26 25 23 22 23 25 27 28 30 31 32 33 34 35 36 38 40 41 42 42 42 42 44 45 47 49 52 54 55 57 60 61 64 67 68 70 71 71 69 66 66 69 70 71 71 71 72 72 73 74 74 75 77 79 80 80 81 81
29 28 29 29 28 27 25 25 27 29 31 32 32 29 27 26 25 24 23 22 23 24 25 27 27 27 27 26 27 27 26 25 24 24 25 27 28 30 31 32 34 35 35 36 38 40 41 41 41 41 42 43 45 47 49 51 54 56 58 59 62 65 67 70 72 73 74 72 71 69 68 70 71 71 72 72 72 73 74 74 74 75 76 79 80 80 81 81
29 28 28 28 26 27 28 29 31 32 33 34 33 31 29 28 26 25 23 23 25 26 26 27 27 27 26 27 27 27 26 25 25 26 27 29 30 32 33 34 36 37 37 38 39 41 41 41 42 43 44 45 46 48 50 52 55 57 60 62 64 67 69 72 74 76 76 73 72 71 70 72 73 73 73 73 73 74 74 75 75 75 76 78 80 80 81 81
29 28 29 31 30 28 30 32 33 35 35 33 31 30 29 29 28 26 24 25 26 27 27 27 28 27 27 27 27 27 27 26 26 28 29 31 32 33 35 36 38 38 38 40 40 41 42 42 44 45 47 48 49 51 53 54 56 59 62 65 67 69 70 73 75 77 77 74 73 73 73 74 73 74 74 74 75 75 75 76 75 75 76 77 79 80 80 81
29 29 31 35 34 32 32 34 36 36 33 30 29 29 28 28 27 25 24 25 26 27 28 28 28 28 27 27 27 27 27 27 28 29 31 32 33 34 36 37 38 39 40 41 42 43 44 45 46 47 49 51 53 54 56 57 59 61 63 66 68 70 71 73 75 76 77 75 74 74 75 76 75 74 75 76 77 77 76 76 75 75 75 76 78 79 80 80
29 31 33 36 37 35 34 35 35 34 32 29 28 27 27 26 24 23 25 26 27 28 29 29 29 28 28 27 27 28 28 28 29 31 32 33 35 36 37 38 39 41 42 44 45 45 46 47 48 50 52 55 57 58 60 62 64 65 66 67 69 71 72 73 73 74 76 77 76 75 76 79 80 78 78 78 78 78 77 76 75 74 74 75 77 78 78 78
32 34 35 36 37 36 35 35 34 32 29 27 26 26 26 24 23 24 26 27 27 29 30 30 29 29 28 28 28 28 29 30 31 32 33 35 36 38 39 40 41 42 44 45 47 47 48 50 51 53 55 57 59 62 64 66 67 68 68 69 70 71 71 71 70 71 74 78 79 78 78 80 83 82 81 80 79 79 77 75 74 73 73 74 75 76 77 76
36 36 34 34 34 35 34 34 32 29 25 25 25 26 25 23 23 25 27 28 28 30 30 30 30 29 28 28 28 29 31 32 33 34 35 37 38 39 40 41 42 43 44 46 48 49 51 52 54 55 57 60 62 65 67 68 69 70 71 71 72 72 72 71 71 71 73 78 81 82 81 81 82 81 80 79 78 77 76 74 72 71 71 72 73 74 74 74
36 36 34 33 34 34 32 29 28 25 24 25 26 25 24 23 25 27 28 28 29 31 31 31 30 29 29 28 29 31 32 34 35 36 37 38 39 40 41 42 43 44 46 47 49 51 53 54 56 58 60 63 66 68 69 70 71 72 72 73 74 75 75 74 75 75 75 78 81 83 82 80 80 79 77 77 76 75 74 72 69 68 68 70 71 71 72 72
36 37 36 35 34 32 29 26 25 25 25 26 26 25 23 24 26 28 29 30 31 32 32 31 31 30 29 29 30 32 34 35 36 37 39 40 41 42 42 43 44 46 47 49 51 53 55 57 59 61 64 66 68 70 71 72 72 73 74 74 74 75 76 77 78 79 78 78 80 80 78 77 78 77 75 73 72 71 70 68 66 65 66 68 68 69 69 70
36 38 38 36 33 29 27 26 26 26 27 27 26 25 24 25 27 28 30 31 32 32 32 32 31 30 30 30 32 33 35 36 38 39 40 41 42 43 44 45 46 48 49 51 53 55 58 60 62 63 65 67 68 70 72 73 74 74 75 76 76 76 77 78 78 79 79 77 76 78 78 74 73 72 69 68 67 65 65 65 63 63 64 66 67 67 68 70
36 38 38 36 33 28 26 26 27 27 27 27 26 25 25 27 29 30 31 32 32 32 32 32 31 31 31 32 33 35 36 38 39 40 42 43 44 45 46 47 48 50 52 53 55 57 59 62 64 65 66 68 69 70 72 74 75 76 77 77 77 77 78 79 79 78 77 73 72 77 80 73 68 66 63 62 62 61 61 62 61 62 63 64 65 65 67 71
36 38 37 34 31 27 25 25 26 27 26 25 25 25 26 28 30 31 32 32 32 33 33 32 31 31 32 33 35 36 37 39 41 42 43 45 46 47 48 49 51 52 54 55 57 59 60 62 64 65 66 68 70 71 72 74 75 77 78 79 79 79 79 80 80 77 75 72 70 74 78 73 66 64 61 59 59 58 59 60 61 62 62 62 63 65 68 72
33 34 33 30 28 26 25 25 26 25 24 24 25 26 28 29 30 31 31 32 33 33 33 32 31 32 33 34 36 37 38 40 42 44 45 46 47 48 50 51 52 54 55 57 58 60 61 63 65 67 67 68 70 71 73 75 76 77 78 79 80 80 80 79 78 77 76 75 72 70 73 72 66 63 61 59 59 58 57 60 61 61 61 61 63 66 70 74
30 29 28 27 26 26 26 25 24 23 23 25 26 28 29 29 30 31 31 32 33 33 33 32 32 33 34 35 37 38 40 42 44 45 46 47 48 49 51 52 53 55 57 59 60 61 63 64 66 68 68 69 71 72 74 76 77 77 78 79 80 80 78 77 76 77 77 77 74 71 72 71 67 65 63 60 60 59 58 59 60 59 59 61 64 68 72 77
29 28 27 26 26 25 23 23 23 23 25 26 27 28 28 29 30 31 32 33 33 33 33 33 33 34 35 36 38 39 41 43 45 46 47 48 49 50 52 53 55 57 59 60 62 62 63 64 65 68 70 70 72 74 74 76 78 78 78 79 79 78 77 76 76 76 77 77 74 71 72 73 68 65 63 60 60 60 58 58 58 59 60 62 66 70 74 79
29 27 26 25 24 22 22 22 23 24 25 26 27 28 29 29 30 31 32 33 33 34 33 34 34 35 36 38 39 41 43 45 46 47 48 49 51 52 54 55 57 59 60 62 63 64 64 65 66 69 71 72 73 74 74 76 77 78 78 78 77 77 78 78 76 75 75 76 74 70 71 73 70 65 63 60 60 60 57 56 57 59 62 65 69 73 76 80
27 26 24 23 21 21 22 23 24 24 26 27 28 28 29 30 31 32 33 33 34 34 34 35 35 36 37 39 41 43 44 46 47 49 50 51 52 54 55 57 58 60 62 62 64 65 66 67 67 68 71 72 73 74 75 76 76 76 76 75 76 77 78 78 76 74 73 74 74 71 69 71 69 65 62 60 59 58 55 55 58 61 65 69 72 75 78 81
25 24 23 22 21 22 24 25 25 26 27 28 29 30 30 31 32 33 34 34 35 35 35 36 36 38 39 41 42 44 45 46 48 50 51 52 53 55 56 58 60 61 62 63 64 66 68 70 69 69 70 68 69 70 71 72 72 72 72 74 75 77 78 78 75 72 69 70 74 72 68 69 68 65 62 58 56 55 56 57 61 64 68 71 75 77 80 82
25 23 23 23 23 25 26 27 27 28 29 29 30 31 31 32 33 34 35 35 36 36 36 37 38 39 40 42 43 45 46 47 48 50 52 53 54 56 58 59 61 62 64 65 66 67 69 71 71 72 73 71 68 69 69 69 70 71 72 74 76 77 78 77 75 71 67 68 73 73 66 62 62 61 60 58 56 56 58 61 65 68 71 74 77 79 82 84
24 24 24 24 26 27 28 28 28 29 30 30 31 32 32 33 35 35 35 36 36 37 37 38 39 40 42 43 44 45 46 48 49 50 52 53 55 57 59 61 62 64 65 66 67 67 68 70 71 72 75 75 72 72 72 72 73 74 75 76 76 76 76 76 74 71 68 67 69 70 63 55 52 54 55 56 58 60 62 64 68 71 74 76 79 81 84 86
25 25 25 26 27 28 29 29 30 30 31 31 32 33 33 34 35 36 36 36 37 38 38 40 41 41 43 44 45 46 47 48 50 51 53 54 56 58 60 62 64 65 66 66 66 66 66 68 70 71 75 76 73 72 73 74 75 76 75 76 76 75 73 72 73 71 68 65 61 60 58 53 49 51 55 57 60 63 65 67 69 72 75 77 80 83 85 88
25 26 27 27 28 29 29 30 31 31 32 33 33 34 35 36 36 36 37 37 38 39 40 41 42 43 44 45 46 47 48 49 51 53 55 56 58 60 62 63 64 65 66 66 66 65 65 66 67 68 72 75 73 72 74 75 76 76 75 74 72 70 68 69 71 68 62 59 54 51 53 53 51 52 57 61 64 66 67 68 70 73 76 78 81 84 86 89
26 27 27 27 28 29 30 31 32 32 33 34 35 36 36 36 36 37 38 39 40 40 41 42 43 44 45 47 48 49 50 51 53 55 57 58 60 61 62 64 64 65 65 65 65 65 64 64 65 65 68 73 74 74 75 76 76 74 73 70 67 66 66 66 67 61 54 51 50 48 50 54 56 57 59 63 66 68 70 71 72 74 77 79 82 85 87 90
26 26 27 27 28 30 31 32 33 34 35 36 36 37 37 37 37 38 39 40 41 42 43 44 45 46 47 48 50 51 52 54 55 56 58 59 61 62 62 63 64 64 65 65 64 64 63 63 64 63 65 70 73 74 75 75 73 69 66 66 64 62 61 61 60 54 49 47 49 51 51 53 58 60 61 64 67 70 73 73 73 76 79 81 83 86 89 92
25 26 27 28 30 32 33 34 35 36 36 37 37 37 37 37 38 39 40 41 42 43 44 45 46 48 49 50 51 52 53 54 56 57 58 59 61 62 62 63 63 64 64 64 63 64 63 63 64 63 64 69 71 71 71 70 67 63 62 61 59 55 53 55 55 51 48 49 52 54 56 57 58 61 63 66 70 73 76 77 75 77 81 84 86 89 92 95
26 28 29 30 32 33 34 35 37 37 37 37 37 37 38 38 39 39 40 41 43 44 45 46 47 49 50 50 52 52 54 55 56 57 59 59 61 61 62 63 63 63 63 63 62 63 63 64 64 63 63 66 66 64 63 63 60 58 56 53 50 48 48 52 55 52 51 54 56 59 61 62 63 64 66 68 70 74 79 81 80 81 83 86 90 93 95 97
Wind_Direction
168 172 176 181 185 188 191 195 198 202 205 208 211 213 215 218 222 224 227 229 232 234 237 239 241 244 246 249 252 255 258 261 264 267 269 271 273 275 277 279 281 282 283 284 286 286 288 289 290 291 292 293 295 296 297 297 298 298 298 298 298 298 299 301 301 303 304 305 306 305 303 302 301 301 301 302 302 303 305 307 308 309 309 309 308 308 308 309
168 173 176 179 185 188 190 193 197 201 205 209 211 213 216 219 222 225 229 231 234 236 239 241 244 246 249 251 254 257 260 263 266 268 270 272 274 276 278 280 282 284 285 286 287 288 290 291 292 294 295 297 298 299 299 299 299 299 299 300 300 301 303 304 305 306 307 307 306 304 302 301 301 302 302 303 305 307 309 310 310 310 310 310 309 310 311 312
170 175 179 181 185 188 190 193 197 201 206 209 211 214 217 219 222 225 229 232 235 238 240 243 245 248 250 253 256 258 261 264 267 269 271 273 275 278 280 282 284 286 287 289 290 291 292 294 296 298 299 300 300 300 300 299 300 300 301 302 303 304 306 306 306 306 306 305 304 303 302 303 304 305 306 308 310 310 310 310 310 311 310 310 311 313 315 317
174 177 182 186 189 190 191 193 198 202 206 208 210 214 217 219 222 225 229 233 236 239 241 243 246 249 251 254 256 259 262 265 268 270 273 275 278 280 283 285 287 288 290 291 293 295 296 298 300 301 301 301 300 300 299 300 300 301 302 303 305 305 306 305 305 305 305 305 304 305 306 308 308 310 312 313 313 312 311 311 312 312 312 312 315 317 319 319
180 182 186 191 194 194 194 196 200 203 205 208 211 214 217 220 223 226 230 233 236 239 241 244 246 249 251 254 257 260 263 266 269 272 275 278 281 283 285 287 289 291 293 294 297 299 300 301 302 302 302 301 300 299 299 300 301 302 303 304 304 305 305 305 305 306 306 306 307 309 310 311 312 314 315 315 314 313 313 313 313 313 314 316 319 320 321 321
182 187 190 193 196 197 198 200 201 202 205 208 211 215 218 221 224 227 231 234 237 239 242 244 246 249 252 255 259 262 265 268 271 274 278 280 283 286 287 289 291 293 295 298 299 300 301 302 303 303 301 300 299 299 300 301 302 303 303 304 304 305 306 307 307 306 307 309 310 311 313 315 317 317 316 316 315 316 315 315 315 314 316 319 321 322 322 322
184 188 192 193 194 196 198 199 199 200 204 208 211 215 218 222 225 228 231 234 236 239 241 244 247 250 254 257 260 264 267 270 273 277 280 282 285 287 289 291 293 296 298 299 300 301 302 303 302 301 299 298 299 300 301 302 303 304 305 305 306 307 308 307 307 308 310 312 313 315 317 319 318 317 317 318 319 318 318 317 316 317 319 321 322 323 324 324
188 190 193 193 193 194 195 197 198 200 203 207 211 214 218 222 224 227 230 233 235 238 241 243 247 250 254 258 262 265 268 272 275 278 281 284 286 289 291 294 296 298 300 301 302 303 302 301 300 299 298 299 299 301 302 303 305 306 307 307 308 308 307 306 308 311 313 314 317 319 320 319 318 320 321 322 322 322 321 319 318 320 322 324 324 325 326 326
192 192 192 194 195 195 196 198 199 199 202 205 208 211 215 219 222 226 229 231 234 237 240 243 247 251 255 259 263 267 271 274 277 280 283 285 289 292 294 297 299 301 301 302 302 302 301 300 299 298 298 298 299 301 302 304 306 306 306 307 308 307 306 307 310 313 316 318 320 321 320 321 323 324 324 324 324 324 323 321 322 323 325 326 326 327 327 327
195 194 192 193 195 197 198 200 199 199 200 202 205 208 212 217 221 225 229 231 234 237 241 245 249 253 257 262 266 269 273 276 279 282 286 289 293 296 298 300 301 301 302 302 301 301 300 298 297 297 297 298 300 301 303 304 304 305 307 308 307 307 308 311 314 316 318 320 321 322 324 326 327 327 326 326 326 325 324 324 326 327 327 327 327 328 328 329
196 193 193 193 193 195 197 200 200 199 199 199 203 209 213 217 222 226 230 233 236 239 243 247 251 256 260 264 268 272 275 278 282 286 291 294 296 298 300 301 302 302 302 301 299 298 296 295 295 296 297 300 302 302 303 304 304 306 309 308 307 310 313 315 317 318 319 321 323 325 327 328 328 328 328 328 328 326 326 327 329 330 329 328 328 328 329 331
196 193 192 192 191 191 192 197 199 199 199 198 202 209 214 218 223 227 231 234 238 241 245 248 253 257 261 266 271 275 279 283 287 291 294 296 298 300 301 302 302 301 300 298 297 296 295 295 296 298 300 302 303 304 304 305 306 308 308 306 308 312 315 317 318 319 320 321 325 327 328 328 329 328 328 328 328 328 328 330 332 332 331 330 329 329 331 333
196 195 192 191 190 189 190 193 196 197 197 198 202 207 214 222 225 228 232 235 239 242 246 251 255 260 265 270 275 279 284 288 291 294 296 298 300 301 301 301 301 299 298 297 296 295 295 296 297 299 301 302 303 303 305 307 309 309 307 308 311 314 317 319 320 320 321 323 325 327 327 327 328 327 327 328 328 330 332 334 334 333 333 331 330 331 333 335
196 196 194 194 193 192 192 194 196 197 196 198 203 206 214 225 229 232 236 239 244 247 251 255 260 266 271 276 280 284 288 291 293 296 298 300 301 301 301 300 299 296 295 295 294 295 296 297 299 301 302 302 303 304 307 310 310 309 311 315 318 320 322 322 321 322 324 325 327 329 329 329 329 329 329 329 331 333 335 336 335 334 334 333 332 332 334 335
200 200 199 199 198 196 195 196 198 198 196 198 204 209 217 227 234 238 242 245 249 253 257 262 267 272 277 281 284 288 291 293 296 298 300 302 302 300 300 297 295 293 293 293 294 295 296 298 300 301 302 303 305 308 311 311 310 313 317 321 323 325 325 324 325 327 328 329 330 332 332 331 331 331 331 332 333 335 336 336 336 335 334 334 334 334 335 335
206 203 201 201 201 200 199 198 200 200 198 199 204 211 220 231 237 240 244 250 254 258 262 267 272 277 281 285 287 290 293 295 298 300 302 303 300 298 295 293 291 291 292 291 291 293 294 296 297 299 302 306 310 312 312 311 314 318 321 324 326 327 327 328 330 331 331 331 331 333 334 332 332 332 333 334 334 335 336 336 335 335 335 335 335 335 335 335
209 207 204 202 201 203 201 198 199 202 201 201 204 209 220 234 240 242 247 254 258 261 266 271 276 281 285 287 288 291 294 297 300 302 303 301 297 294 293 292 291 291 291 290 292 294 296 299 301 304 307 310 312 312 312 316 320 322 324 325 327 328 329 331 332 332 332 331 330 332 334 332 331 332 333 334 334 335 335 335 334 335 335 335 336 336 335 334
210 210 208 204 201 202 203 203 208 212 208 204 207 211 222 234 238 243 248 255 260 264 270 277 283 286 286 287 290 293 296 299 302 303 302 297 294 292 291 291 290 290 291 293 296 298 299 302 304 306 309 312 314 316 319 321 321 321 323 325 326 327 329 331 331 331 331 331 330 331 333 332 331 331 333 333 334 334 334 334 334 334 335 336 336 336 335 335
210 211 210 205 202 201 201 207 216 220 214 206 210 217 228 236 236 239 243 251 263 270 278 283 287 288 289 292 295 297 299 302 304 303 299 295 292 291 289 288 289 290 293 295 297 298 300 302 305 309 313 316 319 321 322 321 319 320 321 323 324 325 326 328 329 330 330 330 329 329 331 332 330 331 332 333 333 333 333 333 333 334 335 336 336 336 335 335
210 212 212 208 205 202 199 201 209 216 213 208 215 222 233 241 238 236 240 252 267 275 281 285 287 290 293 298 299 298 301 303 303 300 296 293 291 289 287 288 290 293 296 297 298 299 301 305 309 313 315 318 320 321 320 318 318 319 321 322 323 324 325 326 327 329 329 329 329 328 329 330 330 330 332 333 333 332 332 332 332 333 335 336 336 336 336 335
211 214 215 211 208 205 202 202 208 212 212 213 220 223 231 239 239 240 244 257 269 274 279 285 290 292 297 300 298 299 302 303 301 297 294 292 290 287 287 289 292 295 298 299 299 301 305 308 311 313 315 317 319 319 318 318 318 319 321 322 323 324 325 326 327 329 329 328 329 327 327 329 330 330 332 332 332 331 331 331 332 333 334 336 336 336 335 336
211 215 217 216 213 210 208 208 210 213 218 221 221 223 231 237 241 246 253 261 266 269 278 288 291 292 297 299 298 299 302 302 299 296 294 292 289 288 288 291 295 298 299 300 302 304 307 310 311 313 315 317 317 317 317 317 318 319 321 321 322 324 326 327 328 328 328 328 329 327 326 328 330 330 332 331 331 331 331 331 332 333 334 335 336 335 335 336
208 213 216 217 216 213 212 211 212 216 222 222 219 225 235 239 245 253 261 262 261 268 279 287 289 292 297 298 297 300 301 300 298 295 294 292 289 289 290 293 296 298 300 302 305 307 309 311 312 313 315 316 316 316 316 316 318 320 321 322 323 325 326 327 327 327 328 329 329 328 326 327 330 331 331 330 330 330 330 331 332 332 333 335 335 335 336 337
207 210 213 215 214 212 211 209 209 216 222 222 222 232 242 243 249 258 258 257 262 272 280 284 288 293 297 297 297 300 300 298 297 295 294 292 290 291 291 292 294 297 301 304 307 309 311 311 312 313 314 315 315 316 318 319 320 321 322 323 324 325 326 326 326 326 328 328 328 329 327 327 329 329 329 329 329 329 329 330 331 332 333 334 334 335 336 337
208 209 212 214 213 211 210 208 214 227 233 234 235 243 249 245 245 250 252 257 266 274 278 282 289 294 296 296 297 298 298 297 296 295 295 293 292 292 292 294 296 300 303 306 309 311 312 312 311 312 313 314 315 317 319 319 321 322 323 324 324 324 324 324 325 325 326 327 327 328 328 326 327 328 328 328 327 328 329 329 330 332 333 333 333 335 336 337
211 212 214 214 212 209 210 214 224 233 236 239 241 247 250 244 241 246 252 261 268 273 277 283 290 294 295 295 296 297 296 294 294 293 293 293 292 292 293 295 298 302 305 308 311 312 312 311 311 311 312 313 315 317 318 319 321 322 323 323 323 323 323 323 324 325 325 326 327 327 328 326 327 327 327 327 327 328 328 329 330 332 333 332 333 335 336 336
212 213 210 209 212 213 215 221 227 229 232 236 241 245 245 241 242 248 256 265 270 274 279 284 289 292 293 293 293 294 293 291 292 292 292 292 292 292 294 296 300 303 305 309 312 313 312 311 310 311 312 313 315 316 318 320 321 321 322 323 323 323 323 323 324 324 325 326 327 327 327 326 326 326 326 326 327 327 328 328 329 331 332 332 333 334 335 335
211 211 206 201 207 216 219 221 225 228 231 235 240 242 238 239 245 252 261 269 272 276 280 285 289 290 290 291 291 291 290 291 292 292 292 293 293 293 296 298 301 303 306 309 311 312 311 311 310 311 311 312 314 316 317 319 320 320 321 321 322 322 323 323 324 324 325 326 326 326 326 326 325 326 325 326 326 326 326 327 328 331 332 332 333 334 335 335
210 209 202 195 197 206 214 218 223 227 231 234 236 235 234 241 248 254 264 270 272 275 279 285 289 289 289 290 290 288 289 290 292 292 293 293 293 294 297 300 302 304 306 309 310 310 310 310 310 311 312 313 314 315 317 318 319 319 320 320 321 321 322 322 323 324 324 325 325 325 325 324 324 324 324 324 324 324 325 326 328 330 332 332 333 333 334 335
210 207 202 198 197 200 208 215 221 225 227 228 228 232 239 246 249 256 266 269 270 275 280 286 287 287 288 288 287 286 288 290 292 293 294 293 294 296 299 301 303 304 305 307 308 310 310 311 312 312 313 314 315 316 317 317 317 318 318 319 319 320 321 322 323 323 323 323 323 323 324 323 322 323 323 323 323 323 325 326 328 330 332 332 332 332 334 336
210 209 206 204 205 207 210 216 221 224 224 225 231 240 244 246 250 261 267 267 270 277 282 285 286 287 287 286 285 285 287 290 291 293 293 294 296 298 300 301 301 302 304 306 308 310 311 312 313 314 314 315 316 317 317 317 317 317 317 318 318 319 320 322 322 322 321 321 321 322 323 323 322 323 323 323 323 323 324 326 327 330 331 332 331 332 334 335
210 211 211 209 211 215 217 221 226 228 229 234 240 242 241 246 257 266 266 266 272 279 283 285 286 286 286 284 283 285 287 289 290 291 292 294 296 298 299 300 300 302 305 308 310 311 312 313 314 315 316 316 316 316 317 317 316 317 317 317 318 319 319 320 320 320 321 321 321 322 323 323 323 323 323 323 323 323 323 325 326 329 331 331 331 332 333 335
212 215 216 214 215 219 223 227 229 231 235 238 239 238 240 252 264 265 264 267 274 280 284 285 285 285 284 282 282 284 286 288 289 290 292 294 296 298 300 301 302 304 306 308 309 311 312 313 314 315 315 315 315 315 315 316 316 316 317 317 318 318 318 319 319 320 321 322 323 322 323 324 323 323 323 323 323 323 323 324 325 328 330 330 330 331 333 334
215 219 221 218 218 222 226 227 227 229 234 235 234 237 245 258 264 263 264 270 277 282 284 284 284 283 282 280 282 284 286 288 289 291 294 296 298 299 301 302 303 304 306 307 308 309 310 311 312 312 313 313 314 314 315 315 316 316 317 318 319 319 320 321 320 321 323 324 324 324 324 325 324 324 323 323 323 323 323 323 325 327 328 329 329 331 332 333
215 220 223 223 223 226 226 223 225 230 235 234 234 240 251 261 264 264 268 274 279 282 283 283 282 282 280 280 282 284 286 288 291 293 295 297 299 300 301 302 303 304 305 306 308 309 310 310 311 312 312 313 313 314 315 315 316 316 318 319 320 321 321 321 322 323 324 325 325 324 325 326 325 324 323 323 322 322 322 323 325 326 327 328 330 331 332 332
214 220 225 228 230 230 226 225 229 234 234 233 237 246 256 262 263 267 272 277 279 281 281 281 281 280 279 280 282 285 287 289 292 294 296 298 299 300 301 301 302 304 305 306 308 309 309 310 311 312 312 313 314 315 315 316 316 317 319 320 321 321 321 322 323 323 325 327 327 326 326 328 327 325 324 323 322 322 323 323 325 326 327 328 331 332 332 332
213 220 226 231 233 232 229 229 232 232 232 235 242 252 258 261 265 270 275 277 279 279 279 279 279 278 279 281 283 285 288 290 293 295 297 298 299 300 300 301 303 304 305 306 308 309 309 310 311 312 313 313 314 315 315 316 317 319 320 320 321 322 322 322 323 324 326 328 330 329 328 329 330 327 326 325 323 324 324 324 325 326 328 331 332 332 332 333
213 219 225 229 230 231 232 232 230 229 233 240 249 255 259 263 268 272 275 277 278 278 278 277 277 278 279 282 284 286 288 291 294 296 297 298 299 300 301 302 303 304 306 307 308 309 310 310 311 312 313 314 314 315 315 316 318 320 320 321 321 322 322 323 323 325 326 328 331 331 330 331 334 332 330 328 326 326 326 326 327 329 331 333 333 333 333 334
216 219 222 223 225 228 229 228 228 233 239 246 252 257 261 266 270 274 275 276 277 277 277 276 276 277 280 282 284 286 288 291 293 296 297 298 299 299 300 302 303 305 307 308 309 310 310 311 312 312 313 314 314 315 316 318 319 320 321 321 321 322 323 323 324 326 327 328 331 333 332 332 335 334 332 331 329 328 329 329 330 332 334 335 334 334 334 334
214 212 212 215 218 222 224 227 233 239 245 251 256 260 264 269 272 274 275 276 276 276 275 275 276 277 280 283 285 287 289 291 293 295 297 298 298 299 300 302 304 305 307 309 310 310 311 312 312 312 313 314 314 316 318 319 320 320 321 321 321 322 323 324 325 326 327 328 330 334 333 332 335 334 332 332 330 330 332 333 333 335 336 336 335 335 335 336
202 199 201 207 213 218 224 232 239 244 250 255 259 263 266 270 273 275 275 276 275 275 274 275 276 278 281 283 285 287 289 291 293 295 296 298 298 299 301 302 304 306 307 309 310 310 311 311 312 312 313 315 316 318 320 320 320 320 321 321 321 322 323 324 325 327 328 328 330 333 334 332 333 333 331 331 331 332 335 337 336 337 337 336 336 336 336 336
192 192 199 207 214 221 230 237 242 248 254 258 261 265 268 271 274 276 276 276 275 274 274 275 277 280 282 284 286 287 289 291 293 295 296 298 299 300 301 303 305 306 308 309 309 310 311 311 313 313 314 317 318 319 320 320 320 320 321 321 321 322 323 324 326 328 329 328 329 332 333 330 330 331 330 331 333 335 339 340 339 338 337 336 336 336 337 337
192 196 204 213 222 230 236 241 246 252 257 260 263 267 270 273 275 276 277 276 275 275 275 276 279 281 283 285 287 288 290 292 294 295 297 299 301 302 303 304 305 306 307 308 309 310 311 312 313 315 316 318 319 319 320 320 319 320 320 321 321 322 323 325 327 329 330 329 328 330 332 330 329 330 330 333 336 337 341 342 340 338 337 336 336 337 337 337
195 202 212 222 230 236 240 245 250 255 259 263 266 269 272 275 276 276 277 277 276 276 276 278 280 282 285 286 288 290 291 293 295 297 299 301 302 303 304 304 305 306 307 308 309 310 312 313 315 316 316 316 317 317 318 318 318 319 321 321 322 323 324 325 327 329 331 329 327 328 332 331 331 331 332 336 340 341 342 342 339 337 337 337 337 337 337 337
199 206 216 227 235 240 243 247 252 257 261 266 269 272 275 276 277 277 277 277 277 277 278 279 281 284 286 287 289 291 293 295 297 299 300 302 303 303 304 304 305 306 307 308 310 312 314 316 317 318 317 316 318 318 318 319 320 321 322 323 323 325 325 326 327 328 330 330 327 328 333 335 334 334 336 340 343 342 342 341 339 337 337 338 337 337 337 337
206 213 222 231 237 241 244 249 254 259 265 269 273 275 277 278 278 278 278 277 277 278 279 281 283 285 287 288 291 292 294 296 298 299 300 301 302 302 303 304 305 306 308 310 312 315 316 317 318 319 318 318 320 321 321 322 322 323 324 324 325 326 327 327 326 327 329 331 330 330 335 341 342 340 341 342 342 341 340 340 339 338 338 338 337 337 337 338
215 223 229 234 239 243 247 251 256 262 268 273 276 278 279 279 279 279 278 278 279 279 281 282 284 286 288 290 292 294 296 297 298 299 300 301 301 302 303 305 306 308 309 312 314 315 317 317 318 319 318 318 320 322 322 322 322 324 325 325 327 327 328 327 325 326 331 334 335 336 339 346 349 345 343 342 341 340 339 339 339 338 338 337 337 337 337 338
224 230 235 239 242 246 250 255 261 267 273 276 278 280 280 280 280 279 279 280 280 281 282 284 286 288 290 291 293 295 296 297 298 299 300 301 302 303 305 306 308 310 311 313 315 315 317 317 318 319 318 318 320 322 322 322 322 324 325 326 328 328 328 326 324 329 337 340 342 346 345 346 347 345 342 340 339 338 338 338 339 338 337 337 337 337 337 337
232 237 241 244 247 251 255 262 268 272 276 278 280 281 281 282 282 281 281 282 282 283 284 286 288 289 291 292 294 295 296 297 298 299 301 302 304 305 307 308 310 311 312 314 314 315 317 317 318 320 319 318 320 322 321 321 322 324 326 327 327 327 327 326 325 334 346 346 345 348 347 344 343 342 340 339 338 338 337 337 338 337 337 337 337 337 337 337
238 241 246 249 252 257 263 268 273 277 279 280 281 282 283 283 283 283 283 284 284 285 286 288 289 290 292 293 294 296 297 298 299 301 302 304 306 307 309 310 311 312 313 313 314 316 317 319 319 321 320 319 319 321 321 321 323 326 326 326 327 328 329 327 328 339 350 348 344 344 343 341 339 338 339 339 338 337 336 336 337 337 336 337 336 336 336 337
244 248 251 254 259 264 269 274 277 279 281 282 283 284 285 286 285 285 285 286 286 287 288 289 291 292 293 294 296 297 298 299 301 303 305 306 308 309 310 310 311 312 312 314 316 317 318 319 320 321 321 319 319 321 321 321 324 326 326 327 330 333 334 332 332 341 348 345 342 340 338 337 338 338 339 339 338 337 335 335 337 337 336 336 336 336 336 336
250 253 257 261 266 271 275 277 279 281 282 283 285 286 287 287 288 288 287 287 288 289 290 291 292 294 295 296 297 299 301 302 304 306 307 308 309 309 310 311 312 312 313 315 317 318 319 320 321 322 322 320 320 322 322 322 324 326 328 333 338 339 341 338 334 338 343 341 339 338 337 337 339 339 340 339 338 337 335 334 336 337 337 336 336 335 335 335